Wind_Speed
69 69 68 66 65 65 64 61 59 58 58 57 57 56 55 55 52 48 46 46 45 44 43 40 37 35 33 36 38 35 34 34 31 30 31 31 31 31 32 33 35 36 37 38 38 39 40 42 43 43 42 40 40 40 41 41 41 42 43 45 47 48 49 48 48 49 49 49 49 50 50 51 51 52
69 70 70 68 66 65 64 62 60 61 61 60 60 60 58 57 55 51 49 49 48 48 46 43 41 40 37 38 38 35 33 33 30 30 31 31 32 32 31 33 34 35 36 37 37 38 39 40 40 39 38 37 38 39 41 41 42 43 44 45 47 48 48 48 49 50 49 49 49 50 51 51 52 53
71 71 71 69 67 67 66 64 64 66 66 64 64 63 61 60 59 56 53 51 51 51 49 45 45 44 41 41 40 35 35 35 33 33 34 35 35 34 33 34 34 35 36 36 37 38 39 39 39 37 37 37 39 40 42 42 43 43 44 46 47 48 48 48 50 51 50 49 50 51 52 53 53 55
76 74 74 71 68 69 69 68 68 70 70 69 68 65 63 63 63 61 58 55 55 55 51 48 49 48 45 44 42 38 38 39 37 37 39 40 39 37 37 37 37 37 37 37 38 39 40 40 39 38 38 39 40 42 43 43 44 44 45 46 47 48 48 49 51 52 51 50 51 52 54 54 55 58
82 79 78 75 72 71 71 71 72 73 73 73 71 68 66 65 64 65 62 59 59 58 55 53 52 50 49 47 45 43 43 42 41 42 45 44 41 40 41 41 40 40 39 39 40 40 41 41 41 40 40 41 42 43 44 45 45 45 46 47 48 48 49 50 53 53 52 52 52 54 55 56 58 60
86 83 82 80 78 75 73 73 74 75 74 74 72 70 68 67 67 67 66 64 63 61 59 57 54 52 52 51 48 47 47 46 45 46 48 46 44 44 44 44 44 43 42 42 43 43 43 43 42 42 43 43 44 45 46 47 47 47 47 47 48 49 50 52 54 54 54 54 55 55 57 58 60 62
88 88 86 84 83 81 77 76 77 77 76 74 73 72 69 68 68 68 68 68 67 65 63 61 58 56 57 56 52 50 50 49 48 50 51 49 48 48 47 47 47 46 45 45 45 45 45 44 44 43 44 45 46 48 49 49 49 49 48 48 49 51 52 54 55 56 56 56 56 56 58 60 62 63
90 90 89 88 88 86 83 81 80 79 79 77 76 75 71 68 67 68 69 69 69 70 66 63 60 58 59 59 55 52 52 51 52 54 55 53 52 53 52 51 50 49 47 48 48 48 47 46 45 45 45 47 48 50 52 52 53 51 50 50 51 53 54 55 56 57 58 57 57 58 59 61 63 65
91 91 91 92 92 91 89 87 85 83 82 82 81 80 77 73 69 68 68 68 69 71 69 65 62 57 58 61 58 55 55 55 56 58 58 58 58 57 56 55 54 52 51 51 51 50 49 49 49 49 49 49 50 52 54 55 55 54 52 52 52 55 56 56 57 58 59 58 58 59 61 63 64 65
92 92 92 93 94 94 93 92 90 89 87 86 86 84 82 81 77 73 70 69 69 71 71 69 64 58 59 62 60 58 59 59 59 60 60 61 61 60 60 60 58 56 54 54 53 53 52 53 52 52 51 51 53 55 57 58 58 57 55 53 54 57 57 57 58 60 60 60 60 61 62 64 65 66
92 93 93 94 95 95 95 95 95 94 92 91 90 87 86 86 85 81 77 72 70 71 73 73 69 63 63 64 62 62 62 61 60 61 62 62 62 63 63 63 60 58 57 57 56 55 55 55 54 54 53 54 56 57 59 60 60 58 56 55 56 59 59 58 61 62 62 61 61 62 64 66 67 67
93 93 94 94 95 95 96 97 98 97 97 96 94 92 90 89 87 85 83 79 75 73 75 76 74 69 66 66 66 65 64 63 63 63 64 65 65 65 65 64 63 61 60 60 58 58 57 56 56 55 55 56 57 59 61 62 61 59 58 57 59 60 60 61 63 63 63 62 63 64 66 67 68 68
94 94 94 94 95 95 96 97 99 99 99 99 98 97 96 93 90 88 88 86 81 78 78 78 76 71 68 68 68 65 64 66 67 67 67 67 67 66 66 66 65 63 62 61 60 59 58 58 58 57 58 58 59 60 62 63 61 59 58 59 61 61 62 64 65 64 64 64 64 65 67 68 69 68
95 95 95 95 95 96 97 97 98 99 100 100 100 100 100 98 95 93 91 90 86 83 83 82 78 73 71 72 71 69 70 71 72 71 70 69 69 68 68 68 67 65 64 63 62 61 60 59 59 59 59 60 60 62 64 63 61 59 60 61 62 63 65 67 66 65 65 65 65 67 68 69 69 68
94 96 96 96 95 95 97 98 98 99 99 100 100 102 102 101 99 97 95 93 90 88 87 85 81 77 77 77 76 76 77 78 77 75 73 72 71 70 70 70 68 66 65 64 63 62 62 61 61 60 60 62 63 64 65 63 60 60 61 62 62 64 67 68 67 67 67 67 67 68 69 70 70 69
94 95 96 96 95 94 95 97 98 99 99 99 100 102 103 103 101 100 98 96 94 93 90 89 86 81 79 80 80 80 80 80 79 77 75 73 73 72 73 72 70 68 66 65 64 64 63 63 63 63 62 64 66 66 64 62 60 60 62 63 64 67 68 68 68 68 68 68 68 69 70 71 71 71
94 95 95 96 95 95 95 96 97 98 99 99 100 101 103 103 102 101 100 99 99 98 96 94 91 85 81 82 84 84 82 80 78 76 75 75 74 74 74 73 71 69 67 66 65 65 65 65 65 64 64 66 68 67 63 61 60 61 63 65 67 69 69 69 69 69 69 69 69 70 71 73 73 73
96 96 96 96 96 96 96 96 96 96 97 98 100 101 102 102 101 101 101 101 101 100 98 97 95 90 85 86 88 88 85 80 76 75 75 74 74 74 74 73 71 69 68 67 67 66 67 67 66 65 65 67 68 66 62 60 61 62 65 67 69 69 69 69 69 69 70 70 70 72 73 74 75 75
97 98 98 98 97 97 97 98 97 96 96 97 98 100 101 102 102 101 101 101 101 100 98 97 96 94 90 91 92 91 87 83 80 79 77 74 74 75 75 74 72 70 68 68 68 67 68 69 67 66 66 67 67 65 62 61 62 64 67 69 70 69 69 69 69 70 70 71 72 73 74 75 76 76
98 98 99 99 99 98 98 98 98 98 98 98 97 98 99 100 101 101 101 101 101 100 99 98 98 96 93 93 94 93 89 86 84 83 80 77 76 76 76 75 73 71 69 69 70 69 70 70 68 66 66 67 66 65 64 63 63 66 69 70 70 70 69 69 69 70 71 72 73 74 75 77 77 77
98 99 100 100 100 99 99 99 99 99 100 100 99 98 98 98 99 99 100 101 101 100 100 100 99 97 95 94 94 94 92 89 87 84 81 79 78 77 77 77 74 72 71 72 72 71 70 70 69 67 67 67 65 64 65 66 66 68 71 71 70 70 70 69 70 71 72 73 74 75 77 78 78 78
99 100 101 101 101 101 100 100 101 100 100 99 99 99 99 98 98 97 97 98 99 100 100 100 99 98 96 95 94 94 92 89 87 86 84 83 82 80 79 78 75 72 73 74 74 71 68 69 70 70 69 68 66 65 67 68 68 70 72 72 71 71 71 70 70 72 73 74 75 77 79 79 79 78
99 100 101 102 102 102 103 103 103 102 100 99 99 100 100 99 98 97 97 97 98 99 100 100 100 100 98 96 95 94 92 90 88 86 84 83 81 80 80 79 76 74 74 74 73 70 66 68 72 73 71 69 66 65 68 70 70 71 72 72 72 73 71 70 71 72 73 75 76 79 80 80 79 79
95 96 98 99 101 102 103 104 104 103 101 101 100 100 100 100 98 97 98 99 99 99 100 100 101 101 100 98 96 95 93 91 88 86 83 81 79 78 79 79 77 75 73 72 71 69 66 68 73 74 72 69 66 67 69 70 70 71 72 72 73 74 73 72 72 74 75 76 78 80 80 79 79 79
89 90 92 94 97 99 101 103 104 103 102 102 102 101 100 99 98 99 100 101 100 99 99 100 100 101 100 99 98 96 94 91 89 87 85 84 82 80 78 78 76 73 71 72 71 68 67 70 73 74 72 69 67 68 69 70 70 71 72 72 73 74 74 74 75 76 77 78 80 81 81 80 80 80
81 83 85 88 91 94 96 99 100 101 101 102 102 101 99 98 98 100 102 102 100 98 98 99 100 100 99 98 98 96 94 92 90 88 87 86 84 81 79 77 75 72 72 73 71 68 68 71 73 73 73 71 69 68 68 69 70 72 73 74 74 75 75 76 77 77 78 79 80 81 81 81 82 83
75 77 79 82 86 88 90 93 94 95 97 99 99 99 97 97 99 101 102 101 99 98 97 98 98 98 98 97 97 96 94 93 91 89 88 86 84 82 80 78 75 73 73 72 69 67 68 70 72 73 74 72 70 68 68 69 71 73 75 76 76 76 77 77 77 78 79 80 80 81 81 82 83 85
70 71 73 77 80 82 83 85 87 88 90 93 94 93 93 95 97 99 99 98 98 97 97 96 96 96 96 96 95 94 94 93 90 88 87 85 83 82 80 78 76 73 71 69 67 66 66 68 72 75 75 73 71 69 69 70 72 75 76 76 76 78 79 78 78 78 79 81 81 82 83 84 84 85
64 66 68 71 73 73 75 76 78 80 83 85 86 86 87 88 91 93 94 94 95 96 96 95 94 94 93 94 95 94 93 92 89 87 85 84 83 82 80 79 76 73 70 68 67 66 66 69 74 76 75 73 71 70 72 73 74 75 75 75 76 78 79 79 79 79 81 82 83 84 85 86 86 87
58 59 61 63 65 66 67 69 71 74 77 78 78 77 79 80 82 85 87 89 90 92 93 93 92 91 91 92 93 93 92 89 87 84 83 83 83 82 81 80 77 73 72 71 69 69 70 73 76 76 75 73 71 72 74 74 73 72 73 75 77 79 79 80 80 81 83 83 84 85 86 87 88 89
51 53 54 56 58 60 62 64 66 68 69 69 68 69 71 73 75 78 80 82 84 86 88 89 90 89 88 88 89 90 89 88 86 83 82 83 84 83 81 79 75 73 72 72 72 73 74 75 75 75 74 72 71 73 74 72 70 70 73 77 79 80 80 80 81 83 84 85 85 87 87 88 89 91
49 51 52 53 55 57 58 59 60 61 61 60 61 62 65 67 69 71 73 75 77 79 82 84 86 86 85 84 85 87 88 87 85 83 82 82 83 82 80 77 74 71 70 70 72 73 74 73 73 72 71 71 72 72 72 71 71 72 75 79 80 80 80 81 83 84 85 86 87 88 88 89 91 92
47 49 50 52 53 55 55 55 55 56 56 56 57 59 62 63 65 66 67 69 71 73 76 79 81 81 80 80 82 85 86 85 84 82 82 82 83 81 78 75 73 70 69 70 72 73 74 73 71 70 69 70 72 72 71 71 72 75 78 80 80 80 81 83 84 86 87 88 88 89 89 91 92 93
45 47 49 50 51 52 52 52 53 53 54 55 57 59 61 62 63 63 63 65 67 69 73 75 77 77 77 78 80 83 84 84 82 82 82 82 82 79 76 74 72 70 70 72 74 74 74 72 69 68 69 70 72 71 71 72 75 78 80 80 80 81 83 84 86 87 88 89 89 90 91 93 93 95
43 45 47 48 49 50 50 50 51 52 53 55 57 59 60 61 61 61 61 62 64 67 69 72 73 75 76 77 77 79 81 82 81 82 82 81 80 77 75 74 71 69 70 74 76 75 74 72 70 70 71 73 73 73 74 75 77 79 80 81 81 83 84 85 87 88 89 89 90 92 93 94 95 97
44 45 46 47 47 48 48 48 50 51 53 55 57 57 57 58 59 59 60 61 63 65 67 69 70 72 73 73 74 76 79 80 81 81 81 79 78 76 74 73 71 70 72 74 75 73 72 72 72 73 74 75 75 75 75 76 78 79 80 81 82 83 84 85 87 88 89 90 91 93 94 95 97 99
44 45 47 47 47 46 45 46 47 49 52 54 55 55 55 57 58 58 58 60 61 63 64 66 68 69 70 71 72 74 77 79 80 80 79 78 75 73 71 70 70 72 73 73 72 71 71 72 73 74 75 75 74 74 74 75 76 78 80 81 82 83 84 86 87 89 90 91 93 94 95 97 99 101
43 46 47 48 48 46 45 44 46 48 51 52 52 52 53 55 56 56 56 58 60 62 63 65 66 68 69 70 71 73 76 78 78 77 75 73 69 67 67 68 70 72 72 71 70 71 72 73 74 74 73 72 71 71 73 74 75 77 80 81 82 83 85 86 87 89 90 92 94 96 97 99 101 102
44 46 47 48 48 47 46 46 47 48 48 49 49 50 51 53 53 54 55 57 59 61 63 65 67 68 68 68 69 72 74 75 74 72 68 64 61 62 64 67 69 69 68 67 68 69 70 71 72 71 70 69 68 70 72 74 75 77 80 82 83 84 85 87 88 90 92 94 96 98 99 100 101 103
44 46 46 46 47 48 48 46 45 45 45 46 46 47 49 50 51 52 54 55 57 60 62 65 66 66 65 67 70 73 73 72 69 65 60 57 58 60 63 65 66 65 64 65 67 69 69 69 69 69 68 67 68 71 73 75 76 78 80 82 83 84 86 88 90 92 94 96 98 99 100 101 103 105
43 44 44 44 46 48 47 44 43 42 42 42 43 45 46 48 49 51 52 54 57 59 61 62 62 63 65 69 72 73 71 67 64 60 58 58 60 63 65 65 65 65 66 67 68 68 68 67 66 66 66 66 68 71 72 74 76 78 80 81 83 85 87 89 91 94 96 97 99 100 101 103 106 108
40 41 41 42 45 45 43 42 41 40 40 40 41 42 43 45 47 48 50 52 55 57 58 59 60 62 65 67 68 67 65 63 62 61 62 63 65 67 68 67 67 68 68 68 67 66 65 65 65 65 66 67 69 71 72 74 77 78 80 81 83 85 88 90 93 95 96 98 99 101 103 105 108 110
36 37 38 40 41 41 40 40 39 38 38 38 39 40 41 42 44 46 47 49 51 53 55 56 57 58 60 62 63 64 64 64 64 64 65 66 68 68 67 66 67 68 67 66 65 66 66 66 67 67 68 69 70 71 73 75 77 78 79 82 84 86 89 92 94 95 97 98 100 102 104 106 108 111
35 36 38 39 39 38 37 36 35 35 35 36 36 37 38 39 41 43 45 47 49 50 52 54 55 57 60 62 63 64 64 64 63 63 64 65 65 64 63 63 65 66 66 66 67 67 67 68 68 68 68 69 70 72 73 75 76 78 80 82 85 88 90 92 94 96 98 100 101 103 105 107 110 112
36 37 38 38 38 37 36 36 35 35 34 34 35 36 38 39 40 42 43 45 47 49 51 53 55 57 58 59 60 61 61 61 61 62 63 64 63 63 63 64 65 66 66 68 68 67 67 68 67 67 67 69 71 73 75 77 78 79 81 84 87 89 91 93 95 97 98 100 102 104 106 109 112 114
Wind_Direction
229 231 233 234 235 238 242 243 243 243 244 244 244 243 244 245 244 242 244 246 247 248 249 248 248 250 255 263 264 264 268 270 270 271 273 273 274 278 283 285 286 286 286 287 287 286 285 283 284 285 287 290 292 293 294 297 299 300 302 305 307 309 312 314 315 315 317 318 318 319 319 320 320 318
229 229 230 232 233 235 238 240 240 240 241 242 244 243 243 245 244 242 241 244 247 249 250 250 251 250 251 255 258 259 262 264 266 269 271 272 275 281 287 288 288 288 288 289 289 287 286 286 287 290 292 293 293 293 295 298 299 301 305 308 309 310 313 314 314 315 317 318 318 319 319 319 319 318
232 230 230 230 230 231 232 236 238 238 238 239 242 243 244 245 246 244 242 243 245 247 249 250 252 252 252 254 256 257 258 259 263 267 269 271 275 281 286 287 288 288 289 290 289 289 289 291 292 293 293 292 292 294 296 298 300 303 307 309 309 311 313 313 313 315 318 318 317 318 319 318 318 318
236 233 232 231 229 228 229 232 234 236 237 238 241 244 245 246 248 248 246 244 245 246 247 248 250 252 253 254 256 257 258 259 262 265 268 271 275 279 282 284 286 288 289 290 290 291 293 293 293 293 291 290 293 295 297 299 302 305 308 309 309 310 312 312 313 315 318 317 317 318 318 317 317 317
238 236 235 235 232 228 227 229 230 232 236 239 241 244 246 247 248 250 249 247 246 247 247 246 249 252 254 254 256 257 259 260 263 265 268 271 274 276 278 281 283 286 288 289 290 292 293 293 293 292 290 290 293 296 297 301 304 307 309 309 309 309 310 311 313 316 317 316 316 318 317 317 316 316
239 238 236 237 237 233 228 228 229 229 233 238 240 242 245 245 246 248 250 249 247 247 247 247 247 250 253 254 255 257 259 261 263 266 268 271 273 274 276 279 281 283 286 288 290 291 292 293 293 292 291 290 293 296 298 302 305 307 309 308 308 308 309 311 313 315 315 314 315 316 316 316 315 315
238 239 238 237 238 238 234 231 229 229 230 233 236 238 240 242 244 246 248 250 250 247 246 246 247 249 251 253 254 256 259 261 263 265 267 270 272 273 275 277 279 281 283 286 288 289 292 294 294 293 292 291 294 296 299 302 304 306 308 307 306 307 308 311 313 313 312 312 313 314 315 314 314 314
237 237 238 237 237 238 238 236 233 231 230 230 232 234 234 236 241 244 247 250 252 251 248 246 246 247 251 254 254 255 258 260 262 264 267 269 270 272 274 275 276 279 281 283 286 288 291 292 292 292 292 294 295 296 298 301 303 305 307 306 305 305 308 310 312 311 311 311 312 313 313 313 313 313
238 237 237 237 237 237 238 239 238 237 234 231 230 232 232 234 237 241 244 247 250 253 253 250 246 245 249 253 255 255 256 257 259 262 265 268 269 271 273 273 275 277 279 281 284 287 289 289 289 290 293 295 295 295 298 300 302 303 305 305 304 304 307 310 310 310 310 311 312 312 312 312 313 313
237 237 237 237 237 237 237 238 240 240 240 237 234 232 233 234 236 239 241 243 246 250 254 255 251 247 247 250 253 255 255 256 259 262 264 267 269 270 270 271 274 277 278 280 282 284 285 287 288 291 293 293 293 295 298 299 301 303 304 304 303 303 306 309 309 309 310 310 311 312 312 312 313 312
237 237 237 237 237 237 237 237 238 239 241 242 240 237 235 235 237 239 242 242 242 244 249 254 255 251 248 250 252 253 255 257 259 261 263 264 265 267 269 271 274 276 277 279 281 282 283 285 288 290 291 291 293 295 296 297 300 302 302 303 302 302 305 307 307 309 310 310 311 311 312 312 312 312
239 238 237 237 237 237 237 237 237 238 239 241 243 242 241 239 239 241 244 244 242 241 244 249 253 253 252 252 253 254 256 258 259 259 260 262 264 267 269 271 273 275 276 278 280 281 282 284 286 288 289 290 292 293 294 296 300 301 301 301 300 301 304 305 306 308 309 310 311 312 312 312 312 312
242 240 238 237 237 237 237 237 237 237 237 239 241 243 244 243 242 243 244 245 244 243 243 244 247 249 252 253 254 255 256 257 258 259 260 263 265 267 269 270 272 274 275 277 279 280 282 283 284 286 288 289 291 291 292 295 299 300 299 299 299 301 303 304 306 307 308 309 310 311 312 313 312 311
242 242 241 239 237 237 237 237 237 238 237 237 239 241 242 243 244 245 245 246 246 245 244 244 244 244 246 249 252 253 254 255 257 258 260 263 265 266 268 269 271 273 275 277 279 280 281 282 283 285 287 288 288 289 290 294 298 298 297 297 299 301 302 304 305 307 308 309 310 311 313 313 312 311
241 242 242 242 240 238 237 237 238 238 238 238 238 239 240 241 242 244 245 246 246 245 246 246 246 244 244 246 249 250 252 253 255 256 258 260 263 265 266 268 270 272 274 276 278 280 281 281 282 284 285 286 287 288 290 294 296 296 296 297 298 300 302 304 305 306 308 309 309 311 312 313 312 311
241 241 241 242 242 240 239 238 238 238 238 238 238 238 239 240 241 241 243 244 245 246 246 247 246 245 245 247 248 250 250 251 253 254 255 258 260 262 264 266 268 271 273 275 277 278 279 280 281 283 284 285 286 287 290 293 294 294 295 296 298 300 302 303 304 306 307 308 309 310 312 312 311 310
242 242 241 241 241 241 241 240 239 238 238 237 238 238 238 239 240 241 241 243 244 245 246 247 246 245 245 246 248 249 249 251 253 254 255 256 258 259 261 264 267 269 272 274 275 277 278 279 280 282 284 284 285 287 290 292 292 292 294 295 297 300 302 303 304 305 307 307 308 309 311 312 311 310
243 243 242 241 240 240 241 241 240 239 238 238 237 238 238 238 239 239 241 242 243 244 245 246 247 246 244 244 246 247 249 250 252 253 255 256 257 259 261 264 266 268 270 272 273 274 276 278 280 282 283 283 284 287 289 290 290 291 293 295 297 300 302 303 304 305 306 307 307 308 310 311 310 310
243 243 243 242 241 240 240 240 240 240 239 238 238 238 238 238 238 238 239 241 242 243 244 245 246 246 245 245 246 248 249 249 250 252 254 255 256 259 261 262 264 266 268 270 271 272 274 277 279 280 281 282 283 286 287 288 289 290 292 295 297 299 301 303 303 304 305 305 306 308 309 310 310 309
243 243 243 243 242 241 240 240 239 239 239 239 238 238 238 238 238 238 238 239 240 242 243 243 244 245 245 246 247 248 248 248 249 251 252 253 255 257 258 260 262 264 266 267 268 271 274 276 278 278 279 280 282 284 285 286 288 290 292 294 296 299 301 302 303 303 304 305 306 307 309 309 309 309
243 243 243 243 242 242 241 240 240 239 238 238 238 238 238 238 238 238 238 238 239 240 242 243 244 244 244 245 246 248 248 248 249 249 251 252 253 255 257 259 261 263 264 265 267 270 273 275 276 276 277 279 281 283 284 285 288 290 291 293 296 298 300 302 302 302 303 304 305 306 308 309 308 308
243 243 242 242 242 241 241 241 240 239 238 237 237 237 238 238 238 238 238 238 238 238 240 241 243 244 244 244 246 248 248 248 249 249 251 252 253 255 257 259 260 262 263 265 267 270 272 274 275 275 276 278 280 282 283 286 288 289 291 293 296 298 300 302 302 301 302 303 304 305 307 308 308 308
243 242 241 241 240 240 240 240 240 239 239 238 237 236 236 237 237 238 238 238 237 237 237 239 240 242 243 244 245 246 248 248 249 250 251 252 253 254 256 258 259 260 262 265 267 269 270 272 273 274 276 278 280 282 284 286 288 289 291 293 296 298 300 301 300 300 301 302 303 305 306 307 307 308
241 241 240 240 239 239 239 239 239 239 239 238 237 236 235 235 236 236 237 237 236 236 236 237 238 240 241 242 244 245 246 247 248 249 250 251 252 253 255 257 258 259 261 264 266 267 268 269 271 274 276 278 280 283 285 286 287 289 291 294 296 298 300 299 299 299 300 301 302 304 305 305 305 306
240 240 239 239 238 238 238 238 238 238 238 238 237 237 236 235 235 235 236 237 236 236 236 236 237 238 240 241 243 244 245 246 247 248 248 249 251 252 254 255 257 258 260 262 264 265 267 268 270 273 276 278 281 283 285 285 287 288 291 294 296 298 298 298 298 299 299 301 302 303 304 304 305 305
239 238 238 238 237 237 237 237 237 237 237 237 237 237 236 236 235 235 236 236 236 236 236 236 237 237 238 240 241 243 244 245 246 247 247 248 250 251 252 253 255 257 258 260 262 264 265 267 270 273 275 278 281 282 283 285 286 288 291 294 295 296 297 297 298 298 299 300 302 302 303 303 304 305
237 237 236 236 236 236 235 236 236 236 237 237 237 237 236 236 236 235 236 236 236 237 237 237 237 237 238 239 240 242 243 244 245 246 247 248 249 250 250 252 253 255 256 258 261 262 263 266 269 272 275 278 280 281 282 283 286 289 291 293 294 295 296 296 296 297 298 299 300 301 301 302 304 305
235 235 234 234 235 235 234 235 235 235 236 236 236 236 235 235 235 236 236 236 236 236 236 236 236 237 237 238 239 240 242 243 244 245 247 248 249 249 249 250 251 253 255 257 258 260 262 266 268 271 274 276 278 279 281 282 285 288 291 292 293 294 295 295 296 296 297 299 299 300 301 302 304 305
234 233 232 233 234 234 233 233 233 233 234 235 235 235 235 234 235 236 236 236 235 236 236 236 236 236 236 236 237 239 240 242 243 244 246 247 247 248 248 249 250 251 253 255 256 258 261 265 268 270 273 275 277 278 280 282 285 288 290 291 292 293 294 294 295 296 297 298 299 300 301 303 304 306
232 232 232 232 232 232 231 231 231 231 232 233 234 234 234 234 234 235 235 235 235 235 235 235 235 235 235 235 236 237 238 240 241 243 244 244 245 246 247 248 249 250 251 253 255 258 261 264 267 270 272 274 276 278 280 283 286 288 289 290 291 291 292 293 294 295 296 297 298 300 301 303 304 306
229 229 229 229 230 230 230 229 229 230 231 232 233 233 233 233 233 233 234 233 233 233 233 234 234 234 234 234 234 235 236 237 239 240 241 243 245 246 247 249 250 250 251 253 255 258 260 263 266 269 271 274 276 277 280 284 285 286 287 288 289 290 290 292 293 294 295 297 298 300 301 303 304 306
227 227 226 227 227 228 228 228 228 229 230 230 231 231 232 232 232 232 232 232 232 233 233 233 233 232 232 232 233 233 233 234 236 237 239 241 244 246 247 248 249 250 251 253 255 257 259 262 265 268 271 273 275 277 281 283 283 284 286 288 288 289 290 291 293 294 295 296 298 300 301 303 304 305
229 229 228 227 227 227 227 227 227 227 228 228 228 229 230 230 230 230 230 230 230 230 231 231 231 231 231 231 231 231 231 232 233 235 237 240 243 245 246 247 248 249 250 251 253 256 258 261 264 267 270 272 274 277 280 281 282 284 286 286 287 289 290 291 293 294 295 297 298 300 301 303 304 305
231 231 231 230 230 229 229 228 227 226 226 226 227 227 228 228 228 228 227 227 227 227 228 228 228 227 228 228 229 229 229 229 231 233 235 238 241 244 245 246 247 248 248 250 252 254 257 260 263 266 268 270 273 275 277 279 282 284 285 285 286 288 290 292 293 295 296 297 299 300 301 303 304 306
231 231 231 232 231 231 230 228 227 226 225 226 226 226 226 226 227 226 225 224 224 225 225 225 225 225 225 226 227 228 227 227 229 231 234 237 240 242 244 246 247 248 248 250 252 254 257 259 261 264 266 269 271 273 276 279 281 282 283 284 286 289 290 292 294 295 296 298 299 300 302 303 305 306
230 230 230 231 231 230 229 228 226 225 225 225 225 225 225 225 226 225 224 223 222 221 222 222 222 222 223 225 226 226 225 226 228 230 233 236 239 241 243 245 247 248 249 251 254 255 257 258 261 263 265 268 270 274 277 279 280 281 282 285 287 289 291 292 294 295 296 297 299 300 302 303 305 306
229 230 229 228 228 228 227 226 224 224 224 224 224 224 224 224 224 224 222 221 220 219 219 219 219 220 221 222 222 223 223 225 227 229 232 235 238 241 243 245 247 249 250 252 254 256 257 258 261 263 266 269 272 275 277 278 279 281 283 285 287 290 291 293 294 295 296 297 298 300 301 303 305 307
228 229 228 227 225 224 223 222 221 221 221 222 222 222 222 223 223 223 221 220 219 217 216 216 216 217 218 219 219 220 222 224 226 229 232 235 238 241 243 245 247 250 252 254 256 257 257 259 261 264 267 271 273 275 275 276 278 281 284 286 288 290 291 292 293 294 295 297 298 300 302 303 305 307
227 228 228 226 223 220 218 219 219 218 218 219 219 219 219 220 220 220 220 219 218 216 214 213 214 215 216 216 217 218 221 223 226 228 231 233 236 239 242 244 247 251 253 255 257 258 259 260 262 265 269 271 273 273 274 276 279 282 284 287 288 290 290 291 292 294 295 297 298 300 302 304 305 307
226 227 226 224 219 216 215 215 216 215 216 216 215 216 217 217 218 217 217 216 216 215 214 213 212 213 213 213 214 216 218 221 223 225 227 229 233 237 240 243 246 249 252 254 256 258 261 263 265 267 269 271 271 272 274 277 280 283 285 286 288 289 290 291 293 294 296 297 299 301 303 304 306 307
226 226 224 220 214 211 211 212 212 211 211 212 212 213 214 215 216 215 215 214 213 213 213 212 212 211 211 212 214 216 218 219 220 221 223 226 230 234 237 240 243 246 248 251 255 259 262 265 266 268 269 271 271 273 275 279 281 283 284 285 287 288 290 291 293 294 296 297 299 301 303 304 306 307
224 222 219 213 208 206 206 206 206 206 206 207 209 211 213 213 213 214 213 212 212 211 211 210 210 210 211 213 215 215 216 217 218 219 222 225 230 233 236 239 242 246 249 253 257 260 262 264 265 266 268 270 271 274 277 280 281 282 283 284 286 287 289 291 292 294 295 297 299 301 303 304 306 307
216 213 207 202 200 200 201 201 201 201 202 204 207 209 211 211 211 211 210 210 210 210 209 208 208 209 210 211 212 213 214 216 218 221 224 228 232 236 240 243 247 250 253 256 258 259 260 262 264 266 268 270 273 275 277 279 280 281 283 284 286 287 289 290 292 293 295 297 299 301 302 303 305 306
201 196 191 190 191 193 195 196 197 198 201 205 207 207 207 207 206 205 204 204 205 205 205 205 204 204 206 208 211 213 216 218 220 223 227 232 236 240 244 247 249 251 253 255 256 258 260 262 264 267 270 272 274 276 277 278 279 281 282 284 286 287 289 290 292 294 296 298 299 301 302 303 305 306
183 181 180 182 184 186 189 191 194 198 202 205 204 201 199 198 198 198 198 198 199 200 201 202 202 204 206 209 212 215 218 220 223 226 230 234 238 241 243 245 247 250 252 254 256 258 261 263 266 268 270 272 274 276 277 278 279 280 282 283 285 286 288 290 292 295 297 298 299 301 302 303 304 305
Height
10670 10674 10676 10680 10683 10684 10686 10689 10691 10692 10694 10698 10701 10703 10705 10707 10710 10713 10716 10718 10719 10720 10721 10724 10725 10726 10728 10729 10729 10731 10732 10731 10732 10733 10732 10733 10733 10733 10734 10734 10733 10733 10732 10731 10731 10730 10729 10728 10728 10728 10728 10728 10728 10727 10725 10724 10723 10722 10720 10718 10716 10713 10711 10709 10707 10705 10702 10700 10697 10694 10691 10688 10685 10682
10662 10666 10669 10672 10675 10677 10679 10682 10684 10686 10688 10691 10695 10696 10698 10700 10703 10708 10710 10712 10714 10715 10717 10720 10721 10721 10723 10724 10724 10727 10728 10727 10729 10729 10728 10729 10729 10730 10731 10730 10729 10729 10728 10727 10727 10726 10725 10724 10724 10724 10724 10724 10723 10722 10721 10720 10719 10718 10716 10714 10711 10709 10706 10704 10702 10700 10698 10696 10693 10691 10688 10684 10681 10678
10655 10658 10661 10665 10668 10670 10672 10675 10677 10679 10682 10685 10687 10690 10691 10692 10696 10701 10704 10707 10709 10709 10712 10715 10715 10716 10719 10719 10719 10723 10723 10723 10725 10725 10724 10724 10725 10727 10727 10726 10725 10725 10724 10724 10723 10722 10721 10721 10720 10720 10720 10720 10719 10718 10717 10716 10715 10713 10712 10710 10707 10704 10702 10700 10698 10696 10694 10692 10689 10686 10683 10680 10677 10673
10646 10650 10653 10656 10660 10662 10665 10669 10670 10671 10675 10677 10679 10683 10685 10686 10689 10693 10697 10702 10703 10703 10708 10710 10708 10711 10714 10714 10716 10718 10719 10719 10721 10720 10719 10720 10722 10723 10722 10722 10721 10721 10720 10720 10719 10718 10718 10717 10717 10717 10716 10716 10715 10714 10712 10711 10710 10709 10707 10705 10702 10700 10698 10696 10694 10692 10689 10687 10684 10682 10679 10675 10672 10668
10638 10642 10645 10648 10651 10654 10657 10661 10662 10664 10667 10669 10672 10676 10679 10681 10683 10684 10689 10695 10696 10697 10702 10704 10704 10706 10708 10709 10711 10713 10714 10715 10716 10715 10714 10716 10719 10718 10717 10717 10717 10716 10716 10716 10715 10715 10714 10714 10713 10713 10712 10711 10710 10709 10708 10707 10706 10705 10703 10700 10698 10695 10694 10692 10689 10687 10685 10682 10680 10677 10674 10671 10667 10663
10628 10633 10637 10640 10642 10645 10649 10653 10655 10657 10659 10662 10665 10668 10672 10675 10676 10677 10680 10685 10689 10692 10694 10697 10700 10702 10701 10703 10707 10708 10709 10711 10712 10710 10709 10712 10714 10713 10712 10713 10712 10712 10712 10712 10711 10711 10710 10710 10710 10709 10708 10707 10706 10705 10703 10702 10702 10700 10699 10696 10693 10691 10689 10687 10685 10683 10680 10677 10675 10672 10669 10666 10662 10658
10619 10623 10627 10631 10633 10636 10641 10644 10647 10651 10653 10655 10658 10661 10664 10667 10669 10671 10672 10675 10680 10684 10687 10691 10696 10698 10694 10696 10702 10703 10704 10707 10707 10705 10704 10707 10708 10707 10708 10708 10707 10708 10708 10708 10707 10707 10707 10706 10706 10705 10704 10703 10702 10700 10699 10698 10697 10696 10694 10692 10689 10687 10685 10682 10680 10678 10675 10673 10670 10668 10664 10661 10657 10653
10608 10613 10617 10622 10624 10626 10631 10635 10639 10643 10646 10649 10651 10654 10657 10660 10662 10664 10665 10669 10671 10673 10679 10685 10691 10693 10690 10689 10696 10699 10699 10701 10701 10699 10699 10702 10702 10702 10703 10703 10702 10703 10704 10703 10703 10703 10703 10702 10701 10701 10700 10699 10697 10696 10694 10693 10692 10691 10690 10687 10684 10682 10680 10678 10675 10673 10670 10668 10665 10662 10659 10656 10652 10648
10597 10602 10607 10611 10613 10617 10623 10626 10630 10634 10637 10640 10643 10646 10650 10653 10656 10658 10659 10663 10664 10664 10670 10677 10683 10689 10687 10683 10688 10693 10693 10695 10695 10694 10695 10696 10697 10697 10697 10696 10697 10699 10700 10699 10699 10699 10698 10698 10697 10696 10695 10694 10693 10691 10689 10688 10687 10687 10685 10682 10680 10677 10675 10673 10671 10668 10665 10662 10660 10657 10654 10651 10647 10643
10585 10590 10596 10600 10603 10608 10614 10618 10621 10624 10627 10630 10633 10638 10643 10645 10649 10651 10653 10657 10659 10659 10662 10665 10674 10683 10682 10678 10682 10685 10686 10688 10689 10689 10690 10690 10691 10691 10690 10690 10693 10695 10695 10694 10694 10694 10693 10693 10692 10692 10691 10689 10687 10686 10684 10683 10682 10682 10680 10678 10675 10672 10670 10668 10665 10662 10659 10657 10654 10651 10648 10645 10641 10637
10574 10579 10584 10588 10593 10599 10604 10608 10611 10614 10617 10620 10624 10630 10635 10636 10641 10645 10647 10650 10654 10656 10656 10657 10663 10672 10673 10672 10676 10678 10679 10682 10684 10685 10685 10684 10683 10683 10683 10685 10688 10690 10689 10689 10689 10689 10688 10688 10688 10687 10686 10684 10682 10681 10679 10677 10677 10677 10675 10673 10670 10667 10665 10663 10660 10657 10654 10651 10648 10645 10642 10639 10635 10632
10563 10568 10573 10578 10583 10588 10593 10597 10600 10604 10608 10611 10615 10621 10624 10628 10634 10638 10639 10641 10646 10651 10652 10651 10654 10661 10665 10666 10669 10671 10674 10676 10678 10678 10676 10675 10676 10677 10678 10679 10682 10683 10683 10683 10684 10684 10684 10684 10683 10682 10680 10678 10677 10676 10673 10672 10673 10672 10670 10668 10665 10662 10660 10658 10654 10652 10649 10645 10642 10639 10636 10633 10629 10625
10551 10556 10561 10567 10573 10577 10581 10585 10589 10594 10599 10603 10607 10611 10614 10619 10626 10629 10630 10632 10638 10643 10644 10643 10648 10656 10658 10658 10660 10665 10668 10668 10668 10669 10669 10670 10671 10673 10673 10673 10675 10677 10677 10678 10678 10678 10679 10679 10678 10677 10675 10673 10672 10670 10667 10667 10668 10667 10665 10662 10660 10657 10655 10652 10649 10646 10643 10640 10636 10633 10630 10626 10623 10619
10539 10543 10548 10555 10562 10566 10570 10574 10579 10584 10589 10595 10599 10601 10604 10609 10616 10620 10622 10625 10630 10634 10634 10635 10643 10651 10652 10651 10653 10656 10657 10657 10659 10662 10663 10665 10666 10667 10667 10667 10669 10670 10671 10672 10673 10673 10674 10674 10673 10672 10670 10667 10666 10664 10662 10663 10664 10662 10659 10657 10655 10652 10650 10646 10643 10640 10637 10634 10630 10627 10624 10620 10617 10613
10528 10531 10536 10542 10549 10555 10560 10564 10568 10573 10578 10584 10589 10591 10593 10599 10606 10612 10613 10616 10621 10625 10626 10629 10636 10643 10645 10644 10646 10648 10648 10650 10652 10655 10657 10659 10661 10661 10660 10660 10662 10664 10665 10667 10668 10668 10668 10668 10667 10667 10664 10661 10660 10659 10657 10657 10658 10656 10654 10652 10649 10647 10644 10641 10638 10634 10631 10628 10624 10621 10618 10614 10611 10607
10517 10520 10525 10529 10536 10543 10548 10552 10556 10561 10567 10573 10578 10580 10583 10588 10596 10601 10604 10606 10611 10615 10618 10621 10627 10635 10638 10637 10638 10638 10639 10641 10644 10648 10651 10654 10655 10655 10653 10654 10656 10658 10659 10661 10662 10662 10662 10663 10662 10661 10659 10655 10652 10654 10654 10652 10652 10650 10648 10647 10644 10642 10639 10636 10632 10628 10625 10622 10618 10615 10611 10608 10604 10600
10505 10509 10513 10518 10524 10531 10535 10539 10544 10550 10556 10562 10566 10569 10572 10577 10585 10591 10595 10598 10601 10605 10609 10612 10617 10627 10631 10629 10627 10626 10628 10633 10638 10642 10645 10647 10648 10647 10647 10649 10651 10652 10654 10655 10656 10656 10656 10656 10656 10655 10654 10650 10645 10647 10650 10648 10645 10644 10642 10641 10639 10636 10634 10630 10626 10622 10619 10615 10612 10609 10605 10602 10598 10594
10493 10497 10501 10506 10512 10518 10522 10526 10532 10538 10543 10549 10554 10557 10561 10567 10574 10580 10584 10588 10589 10594 10601 10603 10607 10616 10621 10617 10613 10614 10620 10628 10633 10635 10637 10639 10641 10641 10642 10643 10644 10646 10648 10649 10650 10651 10649 10649 10650 10650 10647 10644 10641 10642 10644 10643 10640 10638 10636 10634 10632 10631 10628 10624 10620 10616 10613 10609 10606 10602 10599 10596 10592 10588
10480 10484 10487 10493 10499 10505 10509 10514 10520 10525 10530 10536 10541 10546 10550 10556 10562 10569 10574 10576 10579 10585 10592 10594 10595 10602 10608 10606 10603 10606 10615 10622 10626 10627 10630 10632 10633 10634 10635 10637 10638 10639 10642 10642 10643 10644 10643 10642 10644 10644 10641 10638 10636 10636 10638 10638 10635 10633 10631 10628 10627 10625 10623 10619 10615 10611 10607 10603 10599 10596 10593 10589 10585 10581
10467 10470 10474 10480 10485 10491 10496 10502 10507 10512 10517 10522 10528 10534 10539 10544 10550 10558 10563 10566 10570 10576 10581 10583 10584 10590 10596 10597 10596 10600 10607 10614 10617 10620 10622 10625 10626 10626 10628 10630 10632 10634 10635 10635 10635 10638 10637 10634 10636 10638 10635 10632 10632 10631 10630 10631 10631 10627 10625 10624 10622 10620 10617 10614 10609 10605 10601 10597 10593 10590 10587 10583 10579 10575
10453 10457 10461 10465 10470 10477 10484 10489 10493 10498 10503 10510 10516 10522 10529 10534 10539 10547 10553 10557 10562 10567 10570 10573 10576 10580 10586 10589 10589 10592 10599 10606 10610 10612 10615 10617 10618 10619 10621 10623 10626 10628 10629 10628 10629 10631 10631 10627 10627 10631 10630 10626 10628 10626 10622 10623 10626 10622 10619 10618 10617 10614 10611 10608 10604 10599 10595 10591 10588 10584 10581 10577 10573 10569
10437 10442 10446 10450 10456 10463 10469 10473 10477 10483 10490 10497 10505 10511 10517 10522 10528 10536 10543 10548 10553 10558 10561 10564 10567 10571 10576 10581 10581 10584 10591 10598 10601 10604 10607 10609 10611 10614 10615 10617 10620 10622 10622 10621 10621 10625 10626 10621 10618 10622 10623 10621 10623 10623 10616 10615 10618 10616 10613 10611 10610 10607 10605 10602 10597 10593 10589 10586 10582 10578 10575 10571 10566 10561
10419 10425 10429 10434 10441 10448 10453 10457 10462 10469 10476 10485 10492 10498 10504 10511 10518 10526 10532 10536 10541 10546 10550 10554 10556 10560 10566 10571 10574 10577 10583 10588 10593 10596 10598 10601 10605 10608 10609 10610 10614 10616 10616 10614 10614 10618 10620 10615 10610 10613 10616 10615 10617 10617 10612 10609 10609 10608 10607 10606 10603 10600 10599 10596 10591 10587 10584 10580 10576 10572 10568 10564 10559 10554
10402 10408 10413 10419 10426 10431 10436 10442 10447 10455 10464 10471 10477 10484 10491 10499 10508 10516 10519 10521 10526 10533 10539 10543 10547 10550 10556 10561 10565 10569 10574 10579 10584 10588 10591 10593 10597 10601 10602 10604 10606 10609 10610 10608 10607 10611 10614 10609 10604 10605 10608 10610 10611 10609 10605 10604 10602 10600 10600 10600 10596 10593 10591 10589 10585 10581 10578 10575 10571 10567 10563 10559 10554 10550
10387 10394 10400 10405 10410 10415 10421 10427 10434 10442 10451 10456 10462 10471 10479 10488 10498 10504 10504 10507 10514 10522 10528 10534 10538 10542 10547 10552 10556 10560 10566 10572 10576 10580 10583 10585 10588 10593 10596 10596 10599 10603 10603 10599 10600 10605 10607 10602 10599 10599 10601 10603 10605 10602 10598 10597 10596 10594 10594 10594 10590 10586 10583 10580 10578 10574 10571 10567 10563 10559 10555 10552 10547 10543
10375 10381 10387 10391 10395 10401 10407 10414 10421 10430 10437 10443 10449 10459 10469 10479 10487 10489 10490 10496 10505 10513 10519 10525 10529 10534 10539 10544 10548 10553 10559 10564 10569 10572 10574 10576 10580 10586 10589 10590 10593 10596 10593 10591 10595 10600 10599 10595 10594 10594 10594 10595 10598 10596 10593 10590 10589 10587 10587 10587 10585 10581 10578 10574 10571 10567 10564 10561 10557 10552 10547 10543 10539 10534
10363 10369 10374 10378 10382 10388 10395 10402 10410 10419 10425 10430 10438 10448 10459 10468 10472 10473 10478 10488 10497 10504 10511 10517 10521 10527 10533 10537 10540 10546 10551 10556 10561 10564 10566 10569 10574 10578 10581 10583 10586 10586 10584 10586 10591 10593 10592 10590 10588 10587 10587 10588 10590 10590 10588 10585 10583 10580 10579 10579 10577 10574 10571 10569 10565 10561 10557 10554 10551 10546 10542 10538 10533 10528
10352 10358 10363 10366 10371 10378 10386 10393 10400 10408 10414 10419 10427 10438 10447 10454 10457 10461 10470 10480 10487 10494 10501 10506 10511 10518 10525 10529 10534 10539 10543 10548 10554 10557 10559 10562 10566 10569 10572 10575 10577 10578 10579 10583 10585 10585 10585 10584 10581 10579 10580 10581 10583 10582 10581 10580 10578 10574 10572 10572 10569 10565 10563 10561 10559 10555 10551 10547 10543 10539 10535 10531 10526 10522
10344 10349 10354 10358 10364 10371 10379 10385 10392 10398 10403 10409 10418 10427 10435 10442 10448 10454 10461 10469 10477 10483 10490 10496 10502 10508 10515 10520 10525 10531 10535 10540 10546 10551 10553 10555 10557 10560 10564 10566 10569 10572 10575 10577 10578 10579 10579 10576 10573 10573 10574 10575 10576 10576 10574 10574 10573 10569 10566 10565 10563 10559 10555 10553 10551 10548 10543 10540 10536 10532 10527 10523 10519 10514
10338 10343 10348 10353 10358 10364 10370 10376 10382 10388 10393 10401 10410 10418 10426 10433 10439 10445 10451 10459 10466 10472 10478 10485 10491 10498 10505 10511 10516 10522 10528 10533 10539 10543 10545 10545 10547 10551 10555 10559 10563 10567 10569 10570 10571 10572 10570 10568 10567 10567 10568 10569 10570 10568 10566 10567 10567 10563 10560 10557 10555 10553 10549 10545 10543 10540 10536 10532 10529 10524 10520 10515 10511 10506
10333 10337 10342 10346 10351 10356 10362 10368 10374 10380 10387 10396 10404 10411 10417 10424 10429 10434 10440 10447 10454 10461 10468 10474 10481 10488 10496 10502 10508 10515 10521 10526 10530 10534 10535 10536 10538 10543 10549 10553 10557 10560 10562 10563 10564 10564 10562 10561 10561 10561 10562 10563 10563 10561 10559 10560 10560 10558 10554 10550 10547 10545 10542 10539 10535 10531 10528 10525 10522 10517 10513 10508 10503 10498
10326 10330 10334 10339 10343 10348 10354 10361 10368 10375 10382 10390 10397 10402 10407 10413 10418 10424 10431 10438 10446 10453 10460 10466 10472 10479 10487 10494 10500 10506 10511 10517 10521 10524 10526 10529 10532 10537 10542 10547 10550 10553 10555 10556 10557 10555 10555 10555 10555 10556 10557 10556 10555 10554 10553 10553 10552 10551 10548 10543 10540 10538 10535 10531 10528 10524 10520 10517 10514 10510 10506 10500 10495 10490
10321 10325 10329 10333 10338 10343 10349 10355 10362 10369 10376 10382 10388 10393 10397 10402 10408 10414 10422 10430 10437 10443 10450 10456 10463 10472 10480 10486 10491 10496 10501 10507 10512 10515 10519 10522 10525 10530 10535 10540 10543 10546 10548 10548 10548 10547 10548 10549 10550 10551 10551 10550 10548 10548 10547 10547 10545 10543 10540 10537 10533 10530 10527 10523 10519 10516 10513 10509 10506 10502 10498 10493 10487 10482
10317 10320 10324 10329 10333 10338 10344 10350 10356 10362 10368 10374 10379 10383 10388 10392 10398 10405 10413 10420 10426 10433 10438 10445 10454 10462 10469 10475 10481 10486 10493 10500 10504 10507 10510 10514 10518 10523 10528 10533 10536 10538 10540 10540 10539 10540 10541 10543 10545 10545 10544 10543 10542 10542 10541 10540 10538 10535 10532 10529 10527 10524 10520 10516 10512 10508 10505 10501 10497 10492 10488 10484 10480 10474
10312 10315 10319 10323 10328 10333 10339 10345 10350 10355 10360 10365 10370 10374 10379 10385 10391 10398 10404 10411 10417 10423 10429 10437 10445 10452 10459 10466 10473 10479 10486 10493 10496 10498 10502 10507 10512 10517 10522 10525 10529 10531 10532 10531 10531 10533 10536 10537 10538 10538 10537 10536 10536 10535 10534 10533 10531 10528 10525 10522 10520 10517 10513 10509 10505 10501 10497 10493 10488 10483 10479 10474 10470 10465
10306 10310 10314 10318 10323 10328 10333 10339 10344 10349 10353 10358 10363 10368 10374 10379 10385 10391 10397 10402 10408 10414 10421 10429 10438 10445 10453 10461 10467 10473 10479 10483 10486 10490 10496 10502 10507 10511 10516 10520 10522 10523 10523 10523 10524 10527 10530 10531 10531 10531 10530 10530 10529 10529 10528 10526 10523 10521 10518 10515 10512 10509 10506 10502 10498 10494 10490 10485 10480 10475 10470 10465 10460 10456
10301 10305 10309 10313 10318 10323 10328 10333 10338 10343 10347 10352 10357 10363 10369 10374 10378 10384 10390 10396 10402 10408 10415 10422 10431 10439 10446 10453 10460 10466 10470 10474 10478 10485 10491 10496 10501 10507 10511 10513 10514 10514 10515 10516 10519 10522 10523 10524 10524 10524 10524 10523 10523 10522 10521 10519 10516 10513 10510 10508 10506 10502 10498 10495 10491 10486 10482 10478 10473 10468 10464 10458 10452 10447
10296 10299 10302 10307 10312 10318 10323 10328 10332 10337 10341 10346 10352 10358 10363 10368 10374 10380 10386 10392 10397 10403 10409 10417 10425 10432 10438 10445 10453 10458 10462 10467 10474 10481 10487 10493 10499 10503 10505 10505 10505 10506 10508 10511 10514 10516 10517 10517 10517 10517 10517 10517 10516 10515 10513 10513 10510 10506 10502 10500 10498 10495 10491 10487 10483 10478 10474 10470 10465 10461 10456 10451 10445 10438
10291 10293 10297 10301 10307 10313 10318 10322 10326 10331 10337 10342 10348 10353 10358 10363 10369 10376 10382 10387 10393 10399 10405 10411 10417 10424 10432 10440 10447 10452 10456 10463 10471 10478 10484 10490 10494 10496 10496 10497 10498 10500 10503 10506 10507 10509 10510 10510 10511 10511 10511 10510 10510 10508 10506 10505 10503 10500 10496 10493 10490 10487 10483 10479 10474 10470 10466 10461 10457 10452 10447 10443 10437 10431
10286 10289 10292 10297 10302 10308 10313 10318 10323 10328 10334 10339 10344 10349 10354 10360 10365 10371 10377 10383 10389 10395 10401 10406 10412 10421 10429 10436 10441 10445 10452 10460 10468 10475 10480 10485 10487 10488 10489 10490 10492 10495 10498 10500 10501 10502 10502 10503 10504 10504 10504 10504 10503 10501 10499 10497 10495 10493 10490 10486 10483 10479 10475 10471 10466 10462 10457 10453 10448 10443 10439 10434 10429 10423
10281 10285 10289 10293 10298 10303 10309 10315 10321 10326 10331 10337 10342 10347 10351 10357 10362 10367 10373 10379 10385 10391 10397 10404 10412 10419 10425 10430 10435 10442 10450 10459 10465 10471 10475 10478 10479 10480 10481 10484 10487 10491 10492 10493 10494 10495 10496 10497 10497 10497 10498 10497 10496 10495 10493 10491 10488 10485 10482 10479 10476 10471 10467 10463 10458 10454 10450 10445 10440 10436 10430 10425 10420 10414
10278 10281 10286 10290 10296 10302 10308 10314 10319 10324 10330 10335 10340 10344 10349 10354 10359 10364 10370 10377 10383 10389 10396 10403 10410 10416 10422 10427 10435 10443 10450 10456 10461 10465 10468 10470 10471 10472 10475 10479 10482 10484 10485 10486 10488 10489 10489 10490 10491 10491 10492 10491 10490 10489 10487 10484 10480 10477 10474 10471 10469 10465 10460 10456 10451 10447 10443 10439 10434 10428 10423 10416 10410 10404
10275 10279 10284 10290 10296 10302 10308 10313 10318 10323 10329 10333 10337 10342 10347 10353 10358 10363 10369 10376 10382 10389 10395 10402 10408 10415 10421 10428 10435 10441 10446 10451 10456 10459 10462 10463 10464 10466 10471 10475 10476 10477 10479 10480 10481 10482 10483 10484 10485 10485 10485 10485 10483 10482 10479 10476 10473 10470 10466 10463 10459 10456 10452 10448 10444 10440 10436 10433 10428 10422 10416 10410 10404 10398
10273 10278 10284 10290 10297 10303 10308 10314 10319 10323 10328 10332 10337 10341 10346 10351 10356 10361 10367 10373 10380 10387 10394 10400 10406 10413 10419 10426 10432 10438 10443 10447 10451 10454 10456 10457 10459 10463 10467 10469 10470 10471 10473 10474 10475 10476 10477 10478 10479 10479 10479 10478 10477 10474 10472 10469 10466 10463 10460 10456 10452 10447 10443 10439 10436 10431 10427 10423 10419 10414 10409 10403 10397 10391
10274 10279 10286 10291 10297 10303 10308 10313 10318 10323 10327 10332 10336 10340 10344 10349 10355 10360 10365 10371 10377 10383 10390 10397 10404 10410 10417 10424 10430 10435 10439 10442 10445 10448 10450 10452 10456 10459 10462 10463 10464 10465 10466 10467 10468 10469 10471 10472 10473 10473 10472 10472 10470 10467 10464 10462 10459 10456 10453 10449 10445 10441 10437 10434 10430 10426 10420 10414 10408 10404 10400 10395 10389 10384